[[{"header":{"parameterUnit":"m.s-1","parameterCategory":1,"la1":30.2991,"la2":30.254,"lo1":-89.0895,"lo2":-89.0444,"dy":0.0017,"dx":0.0017,"nx":28,"ny":28,"refTime":"2025-08-27T09:00:00:Z","depth":0,"parameterNumber":2,"parameterNumberName":"U-component_of_WINDS"},"data":[0,0,0,0,0,0,0,0,0,0,0,0,0,0,0,0,0,0,0,0,0,0,0,0,0,0,0,0,0,0,0,0,0,0,0,0,0,0,0,0,0,0,0,0,0,0,0,0,0,0,0,0,0,0,0,0,0,0,-0.8681,-0.868,0,-0.862,-0.8619,-0.8619,-0.8581,-0.8581,-0.8581,-0.8581,-0.8515,-0.8513,-0.8512,0,0,0,0,0,0,0,0,0,0,0,0,0,-0.8763,-0.8762,-0.8681,-0.868,-0.8679,-0.862,-0.8619,-0.8618,-0.8581,-0.8581,-0.8581,-0.8581,-0.8515,-0.8513,-0.8511,0,0,0,0,0,0,0,0,0,0,0,0,0,-0.8717,-0.8761,-0.8681,-0.8654,-0.8651,-0.862,-0.8619,-0.8618,-0.8581,-0.8581,-0.8581,-0.8581,-0.8516,-0.8514,-0.8511,-0.8502,0,0,-0.8504,-0.8503,0,0,0,0,0,0,0,0,-0.872,-0.8714,-0.8659,-0.8656,-0.8652,-0.8608,-0.8624,-0.8579,-0.8581,-0.8608,-0.8581,-0.858,-0.8546,-0.8541,-0.853,-0.8499,-0.8496,-0.8504,-0.8502,-0.8501,-0.8501,0,0,0,0,0,0,0,-0.8723,-0.8717,-0.8657,-0.8658,-0.8654,-0.8644,-0.8637,-0.8615,-0.8579,-0.8605,-0.8602,-0.8596,-0.8544,-0.8532,-0.8528,-0.8495,-0.8504,-0.8502,-0.85,-0.8499,-0.8454,-0.8454,0,0,0,0,0,0,-0.8731,-0.872,-0.8659,-0.8655,-0.8686,-0.8643,-0.8635,-0.8622,-0.8579,-0.8572,-0.8596,-0.8594,-0.8537,-0.8531,-0.8526,-0.8512,-0.8501,-0.8499,-0.8498,-0.8454,-0.8454,-0.8454,0,0,0,0,0,0,-0.8733,-0.8726,-0.8661,-0.8686,-0.8677,-0.8642,-0.8628,-0.8621,-0.861,-0.8572,-0.8565,-0.8591,-0.8536,-0.8529,-0.8508,-0.8509,-0.8498,-0.8496,-0.8453,-0.8454,-0.8454,-0.8484,0,0,0,0,0,0,-0.8735,-0.8727,-0.8723,-0.8687,-0.8676,-0.8646,-0.8628,-0.862,-0.8606,-0.8603,-0.8566,-0.8559,-0.8535,-0.8512,-0.8506,-0.8505,-0.8494,-0.8453,-0.8453,-0.8454,-0.8483,-0.8485,-0.8488,0,0,0,0,0,-0.8739,-0.8733,-0.8723,-0.8716,-0.8671,-0.8646,-0.864,-0.8613,-0.8606,-0.8602,-0.8578,-0.856,-0.8511,-0.851,-0.8503,-0.8502,-0.8453,-0.8453,-0.8454,-0.8482,-0.8485,-0.8488,0,0,0,0,0,0,-0.8769,-0.8728,-0.8716,-0.8699,-0.8677,-0.8639,-0.8633,-0.8617,-0.8595,-0.8593,-0.8561,-0.8553,-0.8535,-0.8517,-0.8517,-0.8491,-0.848,-0.8479,-0.8503,-0.8506,-0.8508,-0.8512,-0.8492,0,0,0,0,0,-0.8774,-0.8758,-0.8722,-0.8711,-0.87,-0.8669,-0.8657,-0.8639,-0.8613,-0.8603,-0.8578,-0.8553,-0.8532,-0.8518,-0.8496,-0.8481,-0.8472,-0.8477,-0.8479,-0.8481,-0.848,-0.8471,-0.8472,-0.8456,-0.8456,-0.8456,0,0,-0.8784,-0.8759,-0.8751,-0.8716,-0.8696,-0.868,-0.8661,-0.8643,-0.863,-0.86,-0.8579,-0.856,-0.853,-0.8512,-0.8503,-0.8496,-0.8483,-0.8482,-0.8484,-0.8481,-0.8471,-0.8473,-0.8475,-0.8456,-0.8456,-0.8456,0,0,-0.8792,-0.8773,-0.8761,-0.8742,-0.8713,-0.8693,-0.869,-0.8656,-0.8642,-0.8622,-0.8599,-0.8583,-0.8547,-0.8527,-0.8512,-0.8516,-0.8498,-0.851,-0.8521,-0.8512,-0.8514,-0.8515,-0.8515,-0.8516,-0.8509,-0.8509,-0.8509,0,-0.8808,-0.8782,-0.8757,-0.8741,-0.8726,-0.8701,-0.8688,-0.8671,-0.8636,-0.8626,-0.862,-0.8575,-0.8553,-0.853,-0.8532,-0.8521,-0.8516,-0.8512,-0.8516,-0.8517,-0.8517,-0.8517,-0.8518,-0.8511,-0.851,-0.851,-0.851,0,-0.8802,-0.8785,-0.8779,-0.8747,-0.8732,-0.8718,-0.869,-0.8678,-0.8662,-0.8643,-0.8622,-0.8595,-0.8568,-0.8562,-0.8545,-0.8537,-0.8534,-0.8522,-0.851,-0.8521,-0.852,-0.852,-0.8513,-0.8512,-0.8512,-0.8511,0,0,-0.8826,-0.8782,-0.878,-0.8766,-0.8733,-0.8719,-0.8704,-0.8679,-0.8669,-0.8646,-0.8633,-0.8604,-0.8594,-0.8577,-0.8558,-0.8551,-0.8556,-0.854,-0.8539,-0.8543,-0.8544,-0.8552,-0.8553,-0.8545,-0.8545,-0.8545,-0.8547,0,-0.8829,-0.8802,-0.8779,-0.876,-0.8744,-0.872,-0.8707,-0.8685,-0.8667,-0.865,-0.863,-0.861,-0.8598,-0.8588,-0.858,-0.8557,-0.8555,-0.8557,-0.8531,-0.853,-0.8537,-0.8553,-0.8561,-0.8564,-0.8546,-0.8546,-0.8546,0,-0.8828,-0.8808,-0.8788,-0.8757,-0.875,-0.8738,-0.8714,-0.8699,-0.8674,-0.8661,-0.8644,-0.8625,-0.8608,-0.8599,-0.8575,-0.8577,-0.8565,-0.8553,-0.8552,-0.8547,-0.8538,-0.8547,-0.8564,-0.8564,-0.8546,-0.8546,-0.8546,0,-0.8847,-0.8815,-0.8798,-0.8787,-0.8751,-0.8744,-0.8729,-0.8704,-0.8691,-0.8669,-0.866,-0.8637,-0.8624,-0.8607,-0.8582,-0.8578,-0.8561,-0.855,-0.8549,-0.8549,-0.8544,-0.8545,-0.8558,-0.854,-0.854,-0.854,-0.854,0,-0.8852,-0.884,-0.8806,-0.8796,-0.8782,-0.8757,-0.8744,-0.8727,-0.8705,-0.8691,-0.8669,-0.8656,-0.8625,-0.8608,-0.8589,-0.8572,-0.8567,-0.8556,-0.855,-0.8557,-0.8558,-0.8547,-0.8546,-0.854,-0.854,-0.854,-0.854,0,-0.8869,-0.8847,-0.8827,-0.8796,-0.8788,-0.8779,-0.8752,-0.8741,-0.8723,-0.8705,-0.8699,-0.867,-0.8649,-0.8624,-0.8595,-0.8582,-0.8567,-0.8559,-0.8575,-0.8572,-0.8572,-0.8572,-0.8578,-0.8577,-0.8561,-0.8561,-0.8561,0,-0.8873,-0.8864,-0.8832,-0.8822,-0.8807,-0.8791,-0.8777,-0.8753,-0.874,-0.8712,-0.8704,-0.8682,-0.8663,-0.8631,-0.8607,-0.8585,-0.8576,-0.858,-0.8572,-0.8579,-0.8575,-0.8575,-0.8574,-0.8581,-0.8582,-0.8582,-0.8582,0,-0.8882,-0.8872,-0.8854,-0.8833,-0.8818,-0.88,-0.8781,-0.8773,-0.8745,-0.8731,-0.8711,-0.8696,-0.8667,-0.8645,-0.8621,-0.8604,-0.8588,-0.8585,-0.8583,-0.8589,-0.8598,-0.8592,-0.8579,-0.8584,-0.8584,-0.8584,-0.8584,-0.8584,-0.8892,-0.8883,-0.886,-0.8841,-0.8824,-0.8807,-0.8796,-0.8777,-0.8759,-0.8734,-0.8721,-0.8701,-0.8677,-0.8642,-0.8627,-0.861,-0.8604,-0.8602,-0.8601,-0.8601,-0.8603,-0.8603,-0.8606,-0.8606,-0.8606,-0.8606,-0.8606,0,-0.89,-0.8884,-0.8867,-0.8842,-0.8827,-0.8815,-0.8794,-0.8782,-0.8764,-0.8744,-0.8727,-0.8703,-0.8683,-0.8658,-0.8635,-0.8627,-0.8619,-0.8622,-0.8621,-0.8618,-0.861,-0.8613,-0.8629,-0.8629,-0.8629,-0.8629,-0.8629,-0.8629,-0.8902,-0.8885,-0.8873,-0.8848,-0.8832,-0.8813,-0.8801,-0.8785,-0.8769,-0.8744,-0.8728,-0.8712,-0.869,-0.8666,-0.8647,-0.864,-0.8632,-0.8637,-0.8628,-0.862,-0.8618,-0.8616,-0.8619,-0.8636,-0.8636,-0.8637,-0.8637,-0.8637]},{"header":{"parameterUnit":"m.s-1","parameterCategory":1,"la1":30.2991,"la2":30.254,"lo1":-89.0895,"lo2":-89.0444,"dy":0.0017,"dx":0.0017,"nx":28,"ny":28,"refTime":"2025-08-27T09:00:00:Z","depth":0,"parameterNumber":3,"parameterNumberName":"V-component_of_WINDS"},"data":[0,0,0,0,0,0,0,0,0,0,0,0,0,0,0,0,0,0,0,0,0,0,0,0,0,0,0,0,0,0,0,0,0,0,0,0,0,0,0,0,0,0,0,0,0,0,0,0,0,0,0,0,0,0,0,0,0,0,2.9198,2.9198,0,2.9216,2.9216,2.9217,2.927,2.9271,2.9273,2.9274,2.9288,2.9287,2.9287,0,0,0,0,0,0,0,0,0,0,0,0,0,2.9206,2.9205,2.9198,2.9198,2.9198,2.9216,2.9216,2.9217,2.927,2.9271,2.9273,2.9274,2.9288,2.9287,2.9287,0,0,0,0,0,0,0,0,0,0,0,0,0,2.9211,2.9205,2.9198,2.9227,2.923,2.9216,2.9216,2.9217,2.927,2.9271,2.9273,2.9275,2.9289,2.9288,2.9287,2.9244,0,0,2.9283,2.9283,0,0,0,0,0,0,0,0,2.921,2.921,2.9223,2.9225,2.9228,2.9243,2.9225,2.9226,2.9269,2.9254,2.9274,2.9276,2.9271,2.9272,2.9271,2.9245,2.9246,2.9283,2.9282,2.9282,2.9282,0,0,0,0,0,0,0,2.921,2.921,2.9205,2.9223,2.9226,2.9238,2.9241,2.9225,2.9252,2.9256,2.926,2.9262,2.9273,2.9272,2.9272,2.9246,2.9283,2.9282,2.9282,2.9281,2.9186,2.9185,0,0,0,0,0,0,2.9206,2.9209,2.9204,2.9206,2.9224,2.9237,2.924,2.9236,2.9253,2.9257,2.926,2.9264,2.9273,2.9273,2.9273,2.9224,2.9282,2.9281,2.928,2.9188,2.9186,2.9184,0,0,0,0,0,0,2.9206,2.9205,2.9204,2.9209,2.9209,2.9235,2.923,2.9236,2.9235,2.9256,2.9261,2.9254,2.9274,2.9274,2.9251,2.9226,2.9281,2.928,2.919,2.9188,2.9185,2.9127,0,0,0,0,0,0,2.9206,2.9205,2.919,2.9208,2.9209,2.9183,2.9229,2.9235,2.9233,2.9239,2.9252,2.9256,2.9276,2.9253,2.925,2.9225,2.9279,2.9193,2.9189,2.9186,2.9131,2.9123,2.9115,0,0,0,0,0,2.9206,2.9172,2.9189,2.9188,2.9191,2.9181,2.9182,2.9207,2.9231,2.9215,2.9229,2.9255,2.9229,2.925,2.9248,2.9222,2.9195,2.919,2.9186,2.9135,2.9124,2.9116,0,0,0,0,0,0,2.9148,2.9174,2.9193,2.9164,2.917,2.919,2.9171,2.9195,2.9193,2.9198,2.9228,2.9231,2.9203,2.9211,2.9233,2.9182,2.9216,2.9211,2.9178,2.9168,2.916,2.9158,2.9278,0,0,0,0,0,2.9132,2.9123,2.9146,2.9118,2.912,2.9145,2.9142,2.9161,2.9168,2.9171,2.9183,2.9187,2.9181,2.9175,2.917,2.9133,2.9137,2.9115,2.9106,2.91,2.9095,2.9076,2.9066,2.917,2.917,2.917,0,0,2.9098,2.9111,2.9104,2.9107,2.9114,2.9103,2.9147,2.9134,2.9126,2.9168,2.9148,2.9157,2.9164,2.9134,2.9122,2.9139,2.9067,2.9094,2.9089,2.9087,2.9071,2.9061,2.9052,2.9167,2.9168,2.9168,0,0,2.9031,2.904,2.9018,2.9025,2.9035,2.9053,2.9047,2.9064,2.9072,2.9053,2.9085,2.9075,2.9063,2.9067,2.9067,2.9003,2.9026,2.9,2.8957,2.8939,2.893,2.8923,2.89,2.8891,2.8995,2.8995,2.8995,0,2.8986,2.8973,2.9003,2.8988,2.8988,2.9029,2.9006,2.901,2.9018,2.9016,2.9037,2.9022,2.903,2.9002,2.8986,2.8986,2.898,2.8998,2.8929,2.8923,2.8916,2.8894,2.8885,2.8992,2.8992,2.8993,2.8993,0,2.8918,2.8908,2.8889,2.8897,2.8895,2.8876,2.8903,2.8897,2.8917,2.8932,2.8911,2.8922,2.892,2.8915,2.8933,2.8889,2.89,2.8924,2.8959,2.8903,2.8882,2.8874,2.8987,2.8988,2.8989,2.899,0,0,2.8812,2.884,2.8832,2.8836,2.8852,2.8844,2.8827,2.8827,2.8821,2.8825,2.8811,2.88,2.8823,2.8823,2.8843,2.8827,2.8775,2.8853,2.8854,2.8838,2.8727,2.8707,2.8697,2.8791,2.879,2.8789,2.8726,0,2.8748,2.8722,2.8749,2.8716,2.8707,2.8746,2.8731,2.8738,2.8752,2.8746,2.8761,2.8752,2.8784,2.8784,2.877,2.8784,2.8753,2.8789,2.8777,2.8776,2.8773,2.8687,2.8666,2.8606,2.8718,2.8717,2.8716,0,2.8669,2.8672,2.8639,2.8657,2.8655,2.8641,2.8643,2.8637,2.8646,2.8657,2.8658,2.8683,2.8666,2.8702,2.8679,2.8703,2.87,2.8706,2.8705,2.8703,2.8742,2.8682,2.8588,2.8578,2.8704,2.8705,2.8706,0,2.8595,2.859,2.857,2.8572,2.8594,2.8583,2.8591,2.8602,2.8601,2.8602,2.8601,2.86,2.8599,2.8598,2.8621,2.8645,2.8595,2.8633,2.8603,2.8602,2.859,2.859,2.8492,2.8589,2.8589,2.859,2.859,0,2.8519,2.8497,2.8537,2.8524,2.85,2.8532,2.8507,2.8519,2.8529,2.8519,2.8552,2.8542,2.8574,2.8566,2.8584,2.8563,2.8562,2.857,2.8575,2.8566,2.8565,2.8563,2.8568,2.8587,2.8588,2.8588,2.8589,0,2.8431,2.8457,2.8437,2.846,2.8465,2.8446,2.8465,2.8454,2.8471,2.8457,2.8456,2.8482,2.8475,2.8499,2.8495,2.8507,2.8475,2.8487,2.8472,2.8476,2.8445,2.8447,2.8342,2.8329,2.8435,2.8434,2.8433,0,2.8381,2.8365,2.8387,2.8383,2.839,2.8383,2.8382,2.8413,2.841,2.8421,2.8408,2.8404,2.8403,2.839,2.8407,2.8405,2.8416,2.838,2.8416,2.8408,2.8415,2.8415,2.8414,2.8372,2.837,2.8369,2.8368,0,2.8289,2.8302,2.83,2.8303,2.8301,2.8304,2.8309,2.8304,2.8337,2.8333,2.8327,2.8326,2.8324,2.8319,2.8321,2.8328,2.8353,2.8357,2.835,2.8341,2.8332,2.8336,2.8451,2.8359,2.836,2.8361,2.8361,2.8362,2.8217,2.8205,2.8219,2.8216,2.8223,2.8228,2.8219,2.8235,2.8231,2.8233,2.8251,2.8242,2.8252,2.8257,2.8262,2.8255,2.8271,2.8261,2.8258,2.8255,2.825,2.8335,2.8255,2.8255,2.8256,2.8256,2.8256,0,2.8126,2.8137,2.8134,2.8141,2.8139,2.8165,2.8173,2.8168,2.816,2.8168,2.8167,2.816,2.8157,2.8175,2.8173,2.8164,2.8175,2.8162,2.8162,2.8164,2.8235,2.8241,2.8153,2.8153,2.8153,2.8153,2.8153,2.8153,2.8078,2.8059,2.8075,2.806,2.8072,2.8064,2.8066,2.807,2.8077,2.8068,2.8066,2.8079,2.8091,2.8091,2.8088,2.8094,2.8091,2.8074,2.8083,2.8149,2.8159,2.8168,2.8174,2.8073,2.8073,2.8012,2.8012,2.8011]}]]